Flag for Germany Weather past 2 weeks in Lemgo, North Rhine-Westphalia, Germany

Now
42 °F

Overcast.


Feels Like: 36 °F
Forecast: 38 / 49 °F
Wind: 9 mph from West

Location: Bad Lippspringe

Current Time: Mar 30, 2015 at 6:43:52 AM

Latest Report: Mar 30, 2015 at 6:00 AM


Visibility: 19 mi

Pressure: 29.35 "Hg

Humidity: 82%

Dew point: 37 °F

Location of LemgoLocation

Historic Weather in Lemgo — Graph

°F

Lemgo temperature yesterday

Maximum temperature yesterday: 51 °F (at 5:00 AM)
Minimum temperature yesterday: 47 °F (at 11:00 PM)
Average temperature yesterday: 49 °F

Past Weeks' High & Low Weather Summary

 TemperatureHumidityPressure
High63 °F (Mar 25, 3:00 PM)100% (Mar 19, 8:00 AM)30.38 "Hg (Mar 19, 8:00 AM)
Low27 °F (Mar 23, 5:00 AM)42% (Mar 17, 3:00 PM)29.18 "Hg (Mar 29, 9:00 PM)
Average43 °F80%30.05 "Hg
* Reported Mar 15 3:00 AM — Mar 30 4:00 AM, Lemgo, Weather by CustomWeather, © 2015

Note: Actual official high and low records may vary slightly from our data, if they occured in-between our weather recording intervals... More about our weather records

Advertising

Lemgo weather history for previous 24 hours

 ConditionsComfort  
Time TempWeatherWind HumidityBarometerVisibility
4:00 AM
Mon, Mar 30
44 °FLight rain. Overcast.8 mph79%29.35 "Hg16 mi
3:00 AM44 °FOvercast.7 mph80%29.35 "Hg11 mi
2:00 AM44 °FOvercast.10 mph77%29.35 "Hg16 mi
1:00 AM43 °FOvercast.9 mph79%29.32 "Hg34 mi
12:00 AM45 °FLight freezing rain. Overcast.13 mph79%29.29 "Hg3 mi
11:00 PM
Sun, Mar 29
47 °FOvercast.13 mph76%29.23 "Hg19 mi
10:00 PM48 °FOvercast.10 mph84%29.21 "Hg25 mi
9:00 PM51 °FLight rain. Overcast.12 mph85%29.18 "Hg16 mi
8:00 PM50 °FLight freezing rain. Low clouds.9 mph96%29.21 "Hg4 mi
7:00 PM49 °FRain. Overcast.7 mph95%29.23 "Hg2 mi
6:00 PM50 °FRain. Overcast.8 mph92%29.29 "Hg2 mi
5:00 PM50 °FLight rain. Overcast.7 mph88%29.32 "Hg8 mi
4:00 PM49 °FLight rain. Overcast.6 mph90%29.38 "Hg4 mi
3:00 PM48 °FLight rain. Overcast.7 mph90%29.44 "Hg5 mi
2:00 PM48 °FLight rain. Overcast.7 mph92%29.50 "Hg4 mi
1:00 PM49 °FLight rain. Overcast.8 mph87%29.54 "Hg7 mi
12:00 PM48 °FLight freezing rain. Overcast.7 mph89%29.58 "Hg11 mi
11:00 AM48 °FLight freezing rain. Overcast.9 mph88%29.61 "Hg4 mi
10:00 AM49 °FOvercast.9 mph77%29.62 "Hg17 mi
9:00 AM49 °FOvercast.7 mph82%29.64 "Hg17 mi
8:00 AM48 °FOvercast.8 mph86%29.65 "Hg19 mi
7:00 AM49 °FDrizzle. Overcast.10 mph83%29.66 "Hg17 mi
6:00 AM51 °FOvercast.9 mph77%29.66 "Hg43 mi
Weather by CustomWeather, © 2015

See weather overviewHow to use our weather pages